Weather History for Carmi, IL

Change the Weather History Date:

Wednesday, September 18, 2013

  Actual Average (KEVV) Record (KEVV)
Temperature  
Mean Temperature 74 °F 68 °F  
Max Temperature 85 °F 81 °F 98 °F (1953)
Min Temperature 65 °F 56 °F 42 °F (1901)
Degree Days  
Heating Degree Days 0 2  
Month to date heating degree days 9  
Since 1 July heating degree days 10  
Cooling Degree Days 10 5  
Month to date cooling degree days 128  
Year to date cooling degree days 1327  
Growing Degree Days 24 (Base 50)    
Moisture  
Dew Point 67 °F    
Average Humidity 82    
Maximum Humidity 94    
Minimum Humidity 59    
Precipitation  
Precipitation 0.17 in 0.09 in 2.70 in (1986)
Month to date precipitation 1.82  
Year to date precipitation 32.74  
Snow  
Snow 0.00 in 0.00 in 0.00 in ()
Month to date snowfall 0.0  
Since 1 July snowfall 0.0  
Since 1 September snowfall 0.0  
Snow Depth -    
Sea Level Pressure  
Sea Level Pressure 30.08 in    
Wind  
Wind Speed 3 mph (SSE)    
Max Wind Speed 10 mph    
Max Gust Speed -    
Visibility 8 miles    
Events Rain    
T = Trace of Precipitation, MM = Missing Value Source: NWS Daily Summary

Daily Weather History Graph

Daily Weather History Graph

Search for Another Location

Airport:

Trip Planner

Search our weather history database for the weather conditions in past years. The results will help you decide how hot, cold, wet, or windy it might be!

Date:

Astronomy

Sep. 18, 2013 Rise Set
Actual Time 6:37 AM CDT 6:55 PM CDT
Civil Twilight 6:10 AM CDT 7:21 PM CDT
Nautical Twilight 5:39 AM CDT 7:52 PM CDT
Astronomical Twilight 5:08 AM CDT 8:23 PM CDT
Moon 6:18 PM CDT 5:39 AM CDT
Length of Visible Light 13h 11m
Length of Day
12h 18m
Waxing Gibbous, 99% of the Moon is Illuminated
Sep 18
Waxing Gibbous
Sep 19
Full
Sep 26
Last Quarter
Oct 4
New
Oct 11
First Quarter

Hourly Weather History & Observations

Time (CDT) Temp. Heat Index Dew Point Humidity Pressure Visibility Wind Dir Wind Speed Gust Speed Precip Events Conditions
12:15 AM 65.3 °F - 61.3 °F 87% 30.10 in 10.0 mi Calm Calm - N/A   Clear
12:35 AM 65.3 °F - 61.5 °F 88% 30.10 in 10.0 mi Calm Calm - N/A   Clear
12:55 AM 66.2 °F - 61.3 °F 84% 30.10 in 10.0 mi Calm Calm - N/A   Scattered Clouds
1:15 AM 66.4 °F - 60.8 °F 82% 30.10 in 10.0 mi Calm Calm - N/A   Scattered Clouds
1:35 AM 66.2 °F - 61.0 °F 83% 30.10 in 10.0 mi Calm Calm - N/A   Scattered Clouds
1:55 AM 66.2 °F - 60.6 °F 82% 30.10 in 10.0 mi Calm Calm - N/A   Scattered Clouds
2:15 AM 66.4 °F - 60.6 °F 82% 30.10 in 10.0 mi Calm Calm - N/A   Scattered Clouds
2:35 AM 65.3 °F - 61.5 °F 88% 30.10 in 10.0 mi Calm Calm - N/A   Scattered Clouds
2:55 AM 65.5 °F - 61.5 °F 87% 30.09 in 10.0 mi Calm Calm - N/A   Scattered Clouds
3:15 AM 65.3 °F - 61.9 °F 89% 30.09 in 10.0 mi Calm Calm - N/A   Scattered Clouds
3:35 AM 65.5 °F - 62.6 °F 90% 30.08 in 10.0 mi East 3.5 mph - N/A   Mostly Cloudy
3:55 AM 65.7 °F - 62.2 °F 89% 30.08 in 10.0 mi East 3.5 mph - N/A   Overcast
4:15 AM 65.5 °F - 62.6 °F 90% 30.08 in 7.0 mi ENE 3.5 mph - N/A Rain Rain
4:35 AM 65.8 °F - 62.6 °F 89% 30.08 in 10.0 mi East 3.5 mph - N/A   Mostly Cloudy
4:55 AM 65.5 °F - 62.6 °F 90% 30.09 in 10.0 mi Calm Calm - N/A   Overcast
5:15 AM 65.8 °F - 62.8 °F 90% 30.10 in 10.0 mi Calm Calm - N/A   Overcast
5:35 AM 65.5 °F - 62.8 °F 91% 30.10 in 7.0 mi Calm Calm - N/A Rain Rain
5:55 AM 65.3 °F - 63.0 °F 92% 30.10 in 5.0 mi Calm Calm - 0.04 in Rain Light Rain
6:15 AM 65.1 °F - 62.8 °F 92% 30.12 in 3.0 mi Calm Calm - 0.04 in Rain Rain
6:35 AM 65.3 °F - 63.1 °F 93% 30.12 in 4.0 mi Calm Calm - 0.06 in Rain Light Rain
6:55 AM 65.3 °F - 63.5 °F 94% 30.12 in 4.0 mi Calm Calm - 0.07 in   Light Drizzle
7:15 AM 65.3 °F - 63.5 °F 94% 30.13 in 4.0 mi Calm Calm - N/A Rain Light Rain
7:35 AM 65.3 °F - 63.5 °F 94% 30.13 in 3.0 mi Calm Calm - 0.04 in Rain Light Rain
7:55 AM 65.5 °F - 63.7 °F 94% 30.13 in 2.5 mi Calm Calm - 0.05 in Rain Light Rain
8:15 AM 65.8 °F - 64.0 °F 94% 30.13 in 2.5 mi ENE 3.5 mph - N/A   Mostly Cloudy
8:35 AM 67.1 °F - 64.9 °F 93% 30.13 in 3.0 mi East 5.8 mph - N/A   Overcast
8:55 AM 68.0 °F - 65.7 °F 92% 30.14 in 4.0 mi SE 6.9 mph - N/A   Mostly Cloudy
9:15 AM 68.9 °F - 66.2 °F 91% 30.14 in 4.0 mi SE 5.8 mph - N/A   Scattered Clouds
9:35 AM 70.2 °F - 66.6 °F 88% 30.14 in 5.0 mi SE 6.9 mph - N/A   Scattered Clouds
9:55 AM 71.1 °F - 67.1 °F 87% 30.14 in 7.0 mi SE 4.6 mph - N/A   Scattered Clouds
10:15 AM 72.1 °F - 67.5 °F 85% 30.14 in 7.0 mi ESE 5.8 mph - N/A   Scattered Clouds
10:35 AM 73.8 °F - 68.4 °F 83% 30.13 in 7.0 mi ESE 4.6 mph - N/A   Clear
10:55 AM 74.3 °F - 68.4 °F 82% 30.13 in 10.0 mi ESE 4.6 mph - N/A   Clear
11:15 AM 75.4 °F - 68.9 °F 80% 30.12 in 10.0 mi ESE 4.6 mph - N/A   Clear
11:35 AM 77.0 °F - 69.3 °F 77% 30.12 in 7.0 mi South 4.6 mph - N/A   Clear
11:55 AM 76.8 °F - 69.4 °F 78% 30.11 in 10.0 mi SSE 3.5 mph - N/A   Scattered Clouds
12:15 PM 76.1 °F - 69.3 °F 79% 30.10 in 7.0 mi South 4.6 mph - N/A Rain Light Rain
12:35 PM 76.6 °F - 69.6 °F 79% 30.09 in 7.0 mi South 5.8 mph - N/A   Clear
12:55 PM 78.3 °F - 70.2 °F 76% 30.09 in 10.0 mi South 5.8 mph - N/A   Clear
1:15 PM 80.1 °F 83.4 °F 70.9 °F 73% 30.08 in 7.0 mi SSW 6.9 mph - N/A   Clear
1:35 PM 79.7 °F - 70.5 °F 73% 30.08 in 7.0 mi South 6.9 mph - N/A   Scattered Clouds
1:55 PM 81.9 °F 86.2 °F 71.4 °F 70% 30.07 in 10.0 mi South 5.8 mph - 0.01 in   Mostly Cloudy
2:15 PM 81.5 °F 84.9 °F 69.6 °F 67% 30.06 in 7.0 mi South 4.6 mph - N/A   Scattered Clouds
2:35 PM 82.9 °F 87.2 °F 70.3 °F 66% 30.05 in 10.0 mi South 5.8 mph - N/A   Scattered Clouds
2:55 PM 82.9 °F 87.0 °F 70.2 °F 65% 30.05 in 10.0 mi South 9.2 mph - N/A   Scattered Clouds
3:15 PM 83.3 °F 87.4 °F 70.0 °F 64% 30.04 in 7.0 mi SE 6.9 mph - N/A   Scattered Clouds
3:35 PM 83.5 °F 87.7 °F 70.0 °F 64% 30.03 in 7.0 mi SSE 4.6 mph - N/A   Scattered Clouds
3:55 PM 84.4 °F 88.7 °F 70.0 °F 62% 30.03 in 10.0 mi SSE 6.9 mph - N/A   Scattered Clouds
4:15 PM 83.8 °F 88.1 °F 69.8 °F 63% 30.02 in 10.0 mi SE 5.8 mph - N/A   Mostly Cloudy
4:35 PM 84.6 °F 88.8 °F 69.8 °F 61% 30.02 in 10.0 mi SSE 9.2 mph - N/A   Overcast
4:55 PM 84.6 °F 88.5 °F 69.4 °F 60% 30.02 in 7.0 mi South 6.9 mph - N/A   Scattered Clouds
5:15 PM 84.4 °F 87.9 °F 68.7 °F 59% 30.02 in 10.0 mi South 8.1 mph - N/A   Clear
5:35 PM 83.7 °F 88.0 °F 70.2 °F 64% 30.02 in 10.0 mi SSE 6.9 mph - N/A   Clear
5:55 PM 82.6 °F 86.6 °F 70.2 °F 66% 30.02 in 10.0 mi SSE 10.4 mph - N/A   Clear
6:15 PM 80.8 °F 84.2 °F 70.2 °F 70% 30.02 in 10.0 mi SSE 8.1 mph - N/A   Clear
6:35 PM 79.3 °F - 70.0 °F 73% 30.02 in 10.0 mi SSE 8.1 mph - N/A   Clear
6:55 PM 77.7 °F - 70.0 °F 77% 30.02 in 7.0 mi SSE 5.8 mph - N/A   Clear
7:15 PM 76.5 °F - 69.8 °F 80% 30.02 in 10.0 mi SSE 6.9 mph - N/A   Clear
7:35 PM 75.7 °F - 70.0 °F 82% 30.02 in 7.0 mi SSE 6.9 mph - N/A   Clear
7:55 PM 74.8 °F - 70.0 °F 85% 30.02 in 7.0 mi SSE 6.9 mph - N/A   Clear
8:15 PM 73.8 °F - 69.8 °F 87% 30.03 in 7.0 mi SE 6.9 mph - N/A   Clear
8:35 PM 73.4 °F - 69.8 °F 88% 30.03 in 7.0 mi SE 5.8 mph - N/A   Clear
8:55 PM 73.2 °F - 69.6 °F 88% 30.04 in 7.0 mi SE 5.8 mph - N/A   Clear
9:15 PM 72.7 °F - 69.4 °F 90% 30.04 in 7.0 mi SSE 4.6 mph - N/A   Clear
9:35 PM 72.5 °F - 69.4 °F 90% 30.04 in 7.0 mi SSE 5.8 mph - N/A   Clear
9:55 PM 72.9 °F - 69.8 °F 90% 30.04 in 7.0 mi SSE 5.8 mph - N/A   Clear
10:15 PM 72.7 °F - 69.8 °F 91% 30.04 in 5.0 mi SSE 5.8 mph - N/A   Clear
10:35 PM 72.0 °F - 69.1 °F 91% 30.04 in 5.0 mi SSE 4.6 mph - N/A   Clear
10:55 PM 71.8 °F - 69.3 °F 92% 30.04 in 5.0 mi SSE 4.6 mph - N/A   Clear
11:15 PM 71.1 °F - 68.9 °F 93% 30.05 in 4.0 mi Calm Calm - N/A   Clear
11:35 PM 70.5 °F - 68.4 °F 93% 30.05 in 4.0 mi SSE 3.5 mph - N/A   Clear
11:55 PM 69.8 °F - 67.5 °F 92% 30.05 in 3.0 mi Calm Calm - N/A   Clear